Weather Service Report


518 
ASUS41 KCLE 280312
RWRCLE
OHIO REGIONAL WEATHER ROUNDUP
NATIONAL WEATHER SERVICE WILMINGTON, OH
1100 PM EDT TUE JUN 27 2017

NOTE: "FAIR" INDICATES FEW OR NO CLOUDS BELOW 12,000 FEET WITH NO
SIGNIFICANT WEATHER AND/OR OBSTRUCTIONS TO VISIBILITY.

OHZ001>008-015>018-024>027-034-035-043-044-280400-
   NORTHWEST OHIO
  
CITY           SKY/WX    TMP DP  RH WIND       PRES   REMARKS
DEFIANCE       FAIR      57  49  74 CALM      30.09R                  
FINDLAY        FAIR      59  48  67 S6        30.08R                  
TOLEDO EXPRESS FAIR      59  52  77 SW3       30.07R                  
TOLEDO EXEC    MOCLDY    64  51  62 SW6       30.08R                  
LIMA           FAIR      59  50  72 S7        30.10R                  
$$
 
OHZ009>014-019>023-028>033-038-089-280400-
   NORTHEAST OHIO
  
CITY           SKY/WX    TMP DP  RH WIND       PRES   REMARKS
CLE-HOPKINS    FAIR      64  45  49 S8        30.10R                  
CLE-LAKEFRONT  FAIR      65  42  43 S7        30.07R                  
CUY CO. ARPT   PTCLDY    61  45  55 S6        30.09R                  
LORAIN-ELYRIA  MOCLDY    59  44  57 SW7       30.09R                  
ASHTABULA      CLOUDY    56  52  86 CALM      30.10R                  
AKRON-CANTON   FAIR      60  44  55 SW5       30.11R                  
WOOSTER        FAIR      57  49  74 SW3       30.12R                  
MANSFIELD      MOCLDY    58  48  69 S7        30.12R                  
YOUNGSTOWN     FAIR      52  45  77 SW3       30.10R                  
$$
 
OHZ042-051>053-060>062-070>072-077>081-280400-
  SOUTHWEST OHIO
  
CITY           SKY/WX    TMP DP  RH WIND       PRES   REMARKS
CINC-COVINGTON FAIR      63  51  65 CALM      30.12R                  
CINC-LUNKEN    FAIR      58  53  84 CALM      30.12R                  
HAMILTON       FAIR      56  53  90 CALM      30.12R                  
DAYTON         FAIR      61  46  57 SW3       30.13R                  
WRIGHT-PAT AFB FAIR      57  52  81 CALM      30.12R                  
DAYTON GENERAL FAIR      61  48  62 CALM      30.12R                  
WILMINGTON     FAIR      58  50  75 CALM      30.13R                  
$$

OHZ036-037-039>041-045>050-054>059-063>069-073>076-082>088-280400-
  CENTRAL AND SOUTHEAST OHIO
  
CITY           SKY/WX    TMP DP  RH WIND       PRES   REMARKS
COLUMBUS       FAIR      60  47  61 CALM      30.11R                  
OSU AIRPORT    FAIR      60  45  57 CALM      30.11R                  
BOLTON FIELD   FAIR      58  47  65 CALM      30.13R                  
RICKENBACK AFB FAIR      58  48  67 CALM      30.11R                  
NEWARK         FAIR      54  50  86 CALM      30.12R                  
MARION         FAIR      60  46  59 SW5       30.11R                  
LANCASTER      FAIR      54  51  90 CALM      30.13R                  
ZANESVILLE     FAIR      59  48  67 CALM      30.12R                  
NEW PHILLY     FAIR      56  50  80 CALM      30.13R                  
$$
  

Return to Home page


Western Regional Climate Center, wrcc@dri.edu